User: anonymous   Login
Location: Unspecified
(0.0000°N, 0.0000°E)
Time: 09:35:43
(UTC+00:00)
Language:

TANYUSHA 1 - Orbit

View from above orbital plane
View from above orbital plane
View from above satellite
View from above satellite

Ground track
Ground track

The orbit data is extracted from the following two-line orbital elements,

1 42911U 98067NA  19211.59990721  .12573504  12373-4  16975-3 0  9991
2 42911  51.5967  51.4643 0016837 210.2341 252.3102 16.47729788111909
Epoch (UTC): 30 July 2019 14:23:51
Eccentricity: 0.0016837
inclination: 51.5967°
perigee height: 134 km
apogee height: 156 km
right ascension of ascending node: 51.4643°
argument of perigee: 210.2341°
revolutions per day: 16.47729788
mean anomaly at epoch: 252.3102°
orbit number at epoch: 11190

The dashed part of the orbit path shows where the satellite is in the earth's shadow,  

DLR